Location: Unspecified
(0.0000°N, 0.0000°E)
Time: 02:51:58
(UTC+02:00)

Ariane H10+ - Visible Passes

Search period start: 27 July 2017 00:00
Search period end: 06 August 2017 00:00
Orbit: 288 x 31290 km, 6.7° (Epoch: 25 July)

Date Brightness Start Highest point End Pass type
(mag) Time Alt. Az. Time Alt. Az. Time Alt. Az.
27 Jul 10.3 19:53:57 10° E 20:34:29 11° E 21:07:03 10° E visible
28 Jul 7.0 00:11:48 10° W 01:42:57 27° W 08:10:00 10° ESE visible
28 Jul 8.4 17:37:32 10° W 00:11:31 69° ENE 02:02:59 10° E visible
29 Jul 7.9 21:15:57 10° W 23:08:54 67° WNW 05:40:52 10° E visible
30 Jul 6.4 15:08:15 10° WSW 21:35:57 29° E 23:09:07 10° E visible
31 Jul 8.5 18:40:19 10° W 01:49:09 84° NNE 03:08:35 10° E visible
01 Aug 7.6 22:25:18 10° W 00:14:24 48° WNW 06:42:46 10° ESE visible
02 Aug 7.3 16:09:44 10° W 22:39:16 47° E 00:26:56 10° E visible
03 Aug 8.2 19:43:50 10° W 21:02:56 82° N 04:12:05 10° E visible
04 Aug 7.1 23:42:20 10° W 01:17:16 29° W 07:43:59 10° ESE visible
